Skip Page Navigation
NASA JPL Caltech
NASA Logo - Jet Propulsion Laboratory + View the NASA Portal
+ Center for Near-Earth Object Studies
JPL Home Earth Solar System Stars & Galaxies Technology
JPL Solar System Dynamics
BODIES ORBITS EPHEMERIDES TOOLS PHYSICAL DATA DISCOVERY FAQ SITE MAP
JPL Small-Body Database Browser
Search: [ help ]  
385608 (2005 GM10)
Classification: Main-belt Asteroid          SPK-ID: 2385608
Ephemeris | Orbit Diagram | Orbital Elements | Mission Design | Physical Parameters | Discovery Circumstances | Close-Approach Data ]

[ show orbit diagram ]
Orbital Elements at Epoch 2459396.5 (2021-Jul-01.0) TDB
Reference: JPL 11 (heliocentric ecliptic J2000)
 Element Value Uncertainty (1-sigma)   Units 
e .1043762362901799 1.1383e-07  
a 2.80446536700272 4.3892e-08 au
q 2.511745827188818 3.3025e-07 au
i 13.28302871039612 1.1585e-05 deg
node 20.94321277783578 3.684e-05 deg
peri 125.318002012758 6.4195e-05 deg
M 204.1428385279562 5.0012e-05 deg
tp 2460139.173299183831
(2023-Jul-13.67329918)
0.0002421 TDB
period 1715.432163533507
4.70
4.0272e-05
1.103e-07
d
yr
n .2098596538253425 4.9267e-09 deg/d
Q 3.097184906816622 4.8473e-08 au
  Orbit Determination Parameters
   # obs. used (total)      102  
   data-arc span      5164 days (14.14 yr)  
   first obs. used      2005-03-11  
   last obs. used      2019-05-01  
   planetary ephem.      DE441  
   SB-pert. ephem.      SB441-N16  
   condition code      0  
   norm. resid. RMS      .69644  
   source      ORB  
   producer      Otto Matic  
   solution date      2021-Apr-14 11:05:59  

Additional Information
 Earth MOID = 1.54669 au 
 Jupiter MOID = 1.93346 au 
 T_jup = 3.277 
[ hide covariance matrix ]
Orbital Elements at Epoch 2456901.5 (2014-Sep-01.0) TDB
Reference: JPL 11 (heliocentric ecliptic J2000)
 Element Value Uncertainty (1-sigma)   Units 
e .1040265213578075 1.105e-07  
q 2.511300216773431 3.1849e-07 au
tp 2456699.461256683233
(2014-Feb-10.96125668)
0.0002379 TDB
node 21.22940051464249 3.6891e-05 deg
peri 123.2691158804545 6.5528e-05 deg
i 13.2777102297317 1.1575e-05 deg
  Orbit Determination Parameters
   # obs. used (total)      102  
   data-arc span      5164 days (14.14 yr)  
   first obs. used      2005-03-11  
   last obs. used      2019-05-01  
   planetary ephem.      DE441  
   SB-pert. ephem.      SB441-N16  
   condition code      0  
   norm. resid. RMS      .69644  
   source      ORB  
   producer      Otto Matic  
   solution date      2021-Apr-14 11:05:59  

Additional Information
 Jupiter MOID = 1.93346 au 
 T_jup = 3.277 
Orbit Covariance (6×6)
  e q tp node peri i
e 1.221073258547692E-14 -3.49551506520325E-14 1.292388275968894E-11 -1.057626806584523E-14 3.228236602421741E-12 6.279121219692029E-15
q -3.49551506520325E-14 1.014387885863367E-13 -3.635863534290644E-11 2.575060606770734E-14 -9.05847422039117E-12 -1.034453096398694E-14
tp 1.292388275968894E-11 -3.635863534290644E-11 5.6597075601335E-8 -1.385944208105403E-10 1.293133557869752E-8 6.833759064069252E-11
node -1.057626806584523E-14 2.575060606770734E-14 -1.385944208105403E-10 1.360974698368042E-9 -1.352974400394987E-9 -9.115586013349279E-11
peri 3.228236602421741E-12 -9.05847422039117E-12 1.293133557869752E-8 -1.352974400394987E-9 4.29388843724749E-9 1.041547354340923E-10
i 6.279121219692029E-15 -1.034453096398694E-14 6.833759064069252E-11 -9.115586013349279E-11 1.041547354340923E-10 1.339745602542488E-10

Ephemeris | Orbit Diagram | Orbital Elements | Mission Design | Physical Parameters | Discovery Circumstances | Close-Approach Data ]

Physical Parameter Table
Parameter Symbol Value Units Sigma Reference Notes
absolute magnitude H 16.4   n/a MPO471965  

385608 (2005 GM10)          Discovered 2005-Mar-11 by Spacewatch at Kitt Peak
Reference: Last Updated: 2014-02-19

[ show close-approach data ]
Ephemeris | Orbit Diagram | Orbital Elements | Mission Design | Physical Parameters | Discovery Circumstances | Close-Approach Data ]
ABOUT SSD CREDITS/AWARDS PRIVACY/COPYRIGHT GLOSSARY LINKS
FirstGov 2021-Jul-25 01:22 UT
(server date/time)  
NASA Home Page
Site Manager:   Ryan S. Park
Webmaster  Alan B. Chamberlin